Simultaneous Nadir Overpasses (SNOs) Predictions

Prediction of SNOs between GOES-16 and METOP-C Satellite Orbit:

Table of predicted SNOs for the next 14.0 days since TLE Epoch: 12/13/2019
Index Date Time (GOES-16) GOES-16 Lat,Lon METOP-C Lat,Lon Distance(km) Time Diff (sec)
1 12/16/2019 02:27:51 -0.03, -75.19 0.06, -74.64 61.31 80
2 12/17/2019 14:46:25 0.04, -75.21 0.90, -79.14 446.90 80
3 12/18/2019 14:28:14 0.04, -75.22 -0.19, -74.09 128.59 80
4 12/20/2019 02:46:57 -0.04, -75.21 -0.82, -78.61 387.28 80
5 12/21/2019 02:23:27 -0.04, -75.22 0.33, -73.57 188.42 80
6 12/22/2019 14:42:00 0.04, -75.26 0.67, -78.05 318.67 80
7 12/23/2019 14:23:50 0.04, -75.27 -0.48, -73.01 257.38 80
8 12/25/2019 02:42:33 -0.04, -75.27 -0.54, -77.53 257.72 80
9 12/26/2019 02:19:02 -0.04, -75.29 0.60, -72.50 318.60 80
10 12/27/2019 14:37:36 0.05, -75.33 0.39, -76.98 187.51 80




NCC Satellite Simultaneous Nadir Overpasses (SNOs) Prediction Service
